Regional Weather Roundup
Issued by NWS

Home | Current Version | Previous Version | Graphics & Text | Print | Product List | Glossary Off
Versions: 1 2 3 4 5 6 7 8 9 10 11 12 13 14 15 16 17 18 19 20 21 22 23 24 25 26 27 28 29 30 31 32 33 34 35 36 37 38 39 40 41 42 43 44 45 46 47 48 49 50

000
ASUS43 KMPX 261410
RWRMN
WEATHER ROUNDUP FOR MINNESOTA
NATIONAL WEATHER SERVICE TWIN CITIES/CHANHASSEN MN
900 AM CDT TUE JUL 26 2016


NOTE: "FAIR" INDICATES FEW OR NO CLOUDS BELOW 12,000 FEET WITH NO
SIGNIFICANT WEATHER AND/OR OBSTRUCTIONS TO VISIBILITY. N/A MEANS
CURRENT SKY AND/OR WEATHER CONDITIONS ARE NOT AVAILABLE.

MNZ060>063-068>070-261500-
   Twin Cities Metro

CITY           SKY/WX    TMP DP  RH WIND       PRES   REMARKS
TWIN CITIES    MOSUNNY   78  65  63 SW9       30.05S
ST PAUL        SUNNY     78  68  71 SW5       30.05S
CRYSTAL        MOSUNNY   77  64  64 SW7       30.04R
BLAINE         MOSUNNY   81  66  61 SW6       30.04S
LAKEVILLE      SUNNY     77  66  69 SW3       30.06S
EDEN PRAIRIE   PTSUNNY   78  66  66 SW8       30.04S
LAKEVILLE      SUNNY     77  66  69 SW3       30.06S
SOUTH ST PAUL  SUNNY     77  67  70 S5        30.05S
LAKE ELMO      FAIR      77  68  73 SW7       30.06S
$$
MNZ001>005-007-008-013>017-022>024-027-028-261500-
   Northwest Minnesota

CITY           SKY/WX    TMP DP  RH WIND       PRES   REMARKS
BEMIDJI        CLOUDY    73  64  73 W6        29.99S
HALLOCK        SUNNY     72  66  83 NE3       29.97R
ROSEAU         SUNNY     72  66  83 CALM      29.98S
WARROAD        SUNNY     73  68  83 CALM      29.99R
THIEF RVR FALL CLOUDY    73  67  81 SE6       29.99R
CROOKSTON      CLOUDY    73  66  78 CALM      29.97S
FOSSTON        CLOUDY    72  63  73 CALM      29.98S
DETROIT LAKES  LGT RAIN  68  63  83 CALM      29.99F
MOORHEAD       CLOUDY    70  64  83 S10       29.95F
PARK RAPIDS    LGT RAIN  70  64  81 W3        30.00R
MAHNOMEN       FAIR      68  64  86 SE3       29.97S
$$
MNZ006-009>011-018-025>026-261500-
   North Central Minnesota

CITY           SKY/WX    TMP DP  RH WIND       PRES   REMARKS
BAUDETTE       SUNNY     73  64  73 SE6       29.98R
FLAG ISLAND    SUNNY     73  61  64 NE7       29.98R
INTL FALLS     SUNNY     74  65  73 VRB5      29.98S
WASKISH        MOSUNNY   73  68  83 E6        29.98S
BIG FORK       CLOUDY    73  66  78 CALM      29.98S
LONGVILLE      TSTM      68  66  94 W3        30.00S
GRAND RAPIDS   CLOUDY    75  66  73 SW7       30.01S
CRANE LAKE     SUNNY     70  66  88 W1        30.00R
ORR            MOSUNNY   70  64  83 CALM      29.96S
COOK           MOSUNNY   70  66  88 CALM      29.98F
WALKER         FAIR      70  64  82 CALM      29.99S
$$
MNZ012-019>021-037-261500-
   Northeast Minnesota

CITY           SKY/WX    TMP DP  RH WIND       PRES   REMARKS
DULUTH         MOSUNNY   76  66  71 W10       29.99F
ELY            MOSUNNY   70  64  83 S3        29.98F
HIBBING        CLOUDY    72  65  78 SW6       29.99S
EVELETH        MOSUNNY   73  65  75 SW3       29.99S
DULUTH HARBOR  SUNNY     75  68  78 S7        29.97F
TWO HARBORS    SUNNY     79  70  73 CALM      29.96F
SILVER BAY     SUNNY     75  66  73 CALM      29.96F
GRAND MARAIS     N/A     64  61  90 CALM      29.95S
G MARAIS ARPRT MOSUNNY   70  61  73 CALM      30.00F
$$
MNZ029>031-032-039>041-046>048-054>057-064-261500-
   West Central Minnesota

CITY           SKY/WX    TMP DP  RH WIND       PRES   REMARKS
FERGUS FALLS   CLOUDY    73  64  73 SW6       30.00R
WHEATON        MOSUNNY   77  68  73 S5        30.00S
MORRIS         CLOUDY    72  66  83 S6        30.01R
ALEXANDRIA     CLOUDY    73  64  73 SW12      30.03S
ELBOW LAKE     FAIR      71  65  82 S8        30.01S
WADENA         CLOUDY    70  64  83 SW5       29.99S
GLENWOOD       MOSUNNY   73  64  73 SW10      30.03S
APPLETON       MOSUNNY   77  64  65 SW3       30.02S
BENSON         PTSUNNY   73  64  73 SW6       30.03S
ORTONVILLE     MOSUNNY   75  64  69 CALM      30.02S
MADISON        SUNNY     77  63  61 NW8       30.03R
WILLMAR        FAIR      75  68  78 W7        30.07R
$$
MNZ033>034-036-042>043-049>051-058-059-261500-
   Central Minnesota

CITY           SKY/WX    TMP DP  RH WIND       PRES   REMARKS
ST CLOUD       MOSUNNY   74  69  85 SW7       30.03S
SAUK CENTRE    PTSUNNY   71  64  79 SW8       30.03R
PAYNESVILLE    CLOUDY    74  65  73 SW9       30.05S
AITKIN         MIX PCPN  75  63  64 CALM      30.00R
PINE RIVER     HVY RAIN  66  64  94 CALM      30.04R VSB 1
BRAINERD       CLOUDY    71  64  78 W5        30.00R
STAPLES        CLOUDY    72  63  73 CALM      30.00S
LONG PRAIRIE   FAIR      70  63  78 S8        30.02S
LITTLE FALLS   CLOUDY    72  63  73 CALM      30.02S
LITCHFIELD     SUNNY     75  70  83 W7        30.06R
BUFFALO        MOSUNNY   76  65  68 SW6       30.06R
MAPLE LAKE     PTSUNNY   76  69  78 SW5       30.06R
HUTCHINSON     SUNNY     75  68  79 SW6       30.07R
$$
MNZ037-044-045-052-053-261500-
   East Central Minnesota

CITY           SKY/WX    TMP DP  RH WIND       PRES   REMARKS
PRINCETON      MOSUNNY   79  70  73 SW9       30.03S
MORA           CLOUDY    73  64  73 SW8       30.04R
CAMBRIDGE      PTSUNNY   79  64  61 S7        30.01F
RUSH CITY      MOSUNNY   77  67  71 SW6       30.03S
MOOSE LAKE     CLOUDY    73  66  78 SW7       29.99R
HINCKLEY       PTSUNNY   73  68  83 SW7       30.02R
CLOQUET        CLOUDY    75  63  64 SW7       29.99S
MCGREGOR       MOSUNNY   73  64  73 SW7       30.01S
$$
MNZ071>073-080-081-089-090-097-098-261500-
   Southwest Minnesota

CITY           SKY/WX    TMP DP  RH WIND       PRES   REMARKS
MONTEVIDEO     SUNNY     79  66  65 NE5       30.06R
GRANITE FALLS  SUNNY     76  69  79 CALM      30.05R
CANBY          SUNNY     78  64  60 SW15G24   30.02R
MARSHALL       SUNNY     78  65  63 SW16G23   30.01S
REDWOOD FALLS  SUNNY     76  66  71 SW10      30.03S
OLIVIA         SUNNY     73  66  78 W6        30.04R
PIPESTONE      SUNNY     73  66  78 SW12      30.07S
WINDOM         SUNNY     75  66  73 SW10      30.07S
WORTHINGTON    SUNNY     75  66  73 SW9       30.08F
JACKSON        SUNNY     75  63  64 SW7       30.09S
TRACY          SUNNY     77  67  72 SW14      30.04S
SLAYTON        SUNNY     73  65  77 SW10      30.07F
$$
MNZ065>067-074>077-082>085-091>093-261500-
   South Central Minnesota

CITY           SKY/WX    TMP DP  RH WIND       PRES   REMARKS
MANKATO        SUNNY     75  64  69 S7        30.07S
NEW ULM        SUNNY     75  66  73 SW6       30.05S
ST JAMES       SUNNY     72  63  73 CALM      30.07S
FAIRMONT       SUNNY     75  64  69 SW7       30.07S
GLENCOE        SUNNY     76  70  82 SW5       30.05R
FARIBAULT      SUNNY     75  70  83 SW5       30.08S
OWATONNA       SUNNY     75  66  73 S8        30.09S
WASECA         SUNNY     72  66  83 S7        30.10S
ALBERT LEA     SUNNY     75  66  73 SW5       30.10S
$$
MNZ078>079-086>088-094>096-261500-
   Southeast Minnesota

CITY           SKY/WX    TMP DP  RH WIND       PRES   REMARKS
ROCHESTER      SUNNY     76  68  76 SW8       30.11R
RED WING       SUNNY     77  66  69 W3        30.05S
STANTON        SUNNY     75  68  78 S5        30.06S
DODGE CENTER   SUNNY     75  66  73 SW8       30.10S
WINONA         MOSUNNY   73  68  83 E3        30.08S
AUSTIN         SUNNY     73  66  78 SW3       30.10S
PRESTON        SUNNY     75  65  71 W3        30.12R
$$
ABBREVIATIONS USED IN REMARKS
   TC - TEMPERATURES IN CELSIUS
  WCI - WIND CHILL INDEX
   HX - HEAT INDEX
  VSB - VISIBILITY
$$



USA.gov is the U.S. government's official web portal to all federal, state and local government web resources and services.